PDT,Max TemperatureF,Mean TemperatureF,Min TemperatureF,Max Dew PointF,MeanDew PointF,Min DewpointF,Max Humidity, Mean Humidity, Min Humidity, Max Sea Level PressureIn, Mean Sea Level PressureIn, Min Sea Level PressureIn, Max VisibilityMiles, Mean VisibilityMiles, Min VisibilityMiles, Max Wind SpeedMPH, Mean Wind SpeedMPH, Max Gust SpeedMPH,PrecipitationIn, CloudCover, Events, WindDirDegrees
2013-9-1,80,66,53,61,55,50,94,72,47,29.91,29.87,29.81,10,9,0,13,1,,0.00,0,,248
2013-9-2,80,68,55,59,55,52,94,69,42,29.97,29.90,29.87,10,10,9,10,2,,0.00,2,,261
2013-9-3,71,64,57,61,58,54,94,85,64,30.05,30.00,29.96,10,10,6,6,0,,0.08,4,,10
2013-9-4,69,62,55,61,57,54,100,85,68,30.07,30.05,30.03,10,6,0,9,1,,0.00,6,,306
2013-9-5,68,60,53,61,57,52,94,87,73,30.07,30.01,29.94,10,8,0,15,2,17,0.23,6,Thunderstorm,297
2013-9-6,71,65,59,61,59,57,94,85,68,30.12,30.04,29.97,10,10,3,8,1,,1.05,7,Thunderstorm,158
2013-9-7,73,65,57,61,58,55,94,79,60,30.13,30.09,30.04,10,10,5,10,2,,0.00,4,,311
2013-9-8,75,65,55,61,57,54,94,81,61,30.13,30.09,30.04,10,7,0,10,1,,0.00,3,,315
2013-9-9,75,65,55,61,57,54,100,82,57,30.09,30.05,30.00,10,6,0,12,3,,0.00,4,,312
2013-9-10,75,64,53,63,57,52,94,82,64,30.03,29.98,29.91,10,6,0,13,2,,0.00,4,,303
2013-9-11,87,70,53,66,59,50,94,73,48,29.97,29.93,29.89,10,9,0,10,2,,0.00,0,,322
2013-9-12,77,65,53,63,57,52,94,78,57,30.02,29.97,29.92,10,10,0,10,3,,0.00,0,,328
2013-9-13,64,60,55,59,57,54,94,86,77,30.00,29.95,29.90,10,6,0,7,3,,0.00,8,,287
2013-9-14,66,62,59,59,58,55,94,86,78,29.91,29.84,29.76,10,7,2,8,3,,0.00,8,,309
2013-9-15,64,60,55,61,57,54,94,89,82,29.83,29.77,29.74,10,5,0,12,4,,0.00,8,Thunderstorm,206
2013-9-16,62,58,55,59,56,52,94,82,72,29.96,29.91,29.82,10,10,4,16,9,22,0.00,8,,174
2013-9-17,60,58,55,54,52,48,94,82,72,29.96,29.91,29.89,10,10,6,8,2,,0.01,8,,302
2013-9-18,66,58,48,54,50,45,94,78,52,30.10,30.06,29.97,10,10,2,6,2,,0.01,4,,53
2013-9-19,78,60,42,54,48,37,93,69,34,30.08,29.92,29.78,10,10,2,8,1,,0.00,0,,171
2013-9-20,75,60,46,54,49,43,93,68,38,29.78,29.68,29.60,10,10,10,16,3,21,0.00,2,,175
2013-9-21,68,60,53,54,52,50,88,76,52,29.73,29.70,29.66,10,10,10,9,5,,0.00,6,,194
2013-9-22,60,58,55,54,51,46,82,78,63,29.73,29.66,29.59,10,10,7,20,12,28,0.07,8,,158
2013-9-23,60,56,51,54,49,46,88,79,72,29.99,29.89,29.73,10,10,8,18,9,23,0.02,8,,177
2013-9-24,60,54,48,50,47,45,94,79,55,29.99,29.91,29.86,10,10,6,10,3,,0.07,7,,86
2013-9-25,57,50,42,48,46,39,94,82,67,30.05,29.96,29.89,10,9,0,13,4,,0.07,6,,325
2013-9-26,60,50,39,48,43,37,93,81,55,30.15,30.11,30.06,10,8,0,7,2,,0.00,4,,268
2013-9-27,55,48,42,52,47,39,94,83,72,30.14,30.00,29.86,10,10,2,15,5,20,0.01,7,,139
2013-9-28,60,55,50,55,51,46,94,84,77,29.85,29.54,29.34,10,10,6,30,13,38,0.18,8,,151
2013-9-29,55,53,51,48,47,45,82,77,67,29.55,29.44,29.16,10,10,8,28,19,36,0.07,7,,148
2013-9-30,57,52,48,48,45,41,82,74,67,29.92,29.69,29.41,10,10,10,21,14,28,0.07,7,,160